Location: Oso Ridge
(35.0450°N, 108.0864°W)
Time: 22:48:14
(UTC-06:00)

Amateur Radio Satellites - All Passes

Search period start: 21 October 2014 22:18
Search period end: 22 October 2014 22:18
Location: Oso Ridge, 35.0450°N, 108.0864°W

Satellite Date Start Highest point End Downlink Frequencies (MHz)
Time Altitude Azimuth
FUNcube-1 21 Oct 22:32:31 22:37:02 57° 75° (ENE) 22:41:31 145.950 - 145.970 MHz USB
SO-50 21 Oct 22:39:11 22:43:31 31° 54° (NE) 22:47:51 436.795 FM
HO-68 21 Oct 22:41:35 22:47:18 26° 264° (W) 22:53:05 435.675 MHz FM
Oscar 11 21 Oct 22:43:54 22:47:59 40° 261° (W) 22:52:03 145.825 FM, Beacon 2401.500 USB
ZACube-1 21 Oct 23:23:30 23:27:46 37° 262° (W) 23:32:00 437.345 MHz
KITSAT 1 21 Oct 23:29:11 23:37:01 56° 249° (WSW) 23:44:49 435.175 FM
RS-15 21 Oct 23:31:22 23:42:27 82° 299° (WNW) 23:53:25 29.354 - 29.394 USB, Beacon 29.352 USB
FUNcube-1 22 Oct 00:12:14 00:13:40 11° 268° (W) 00:15:07 145.950 - 145.970 MHz USB
SO-50 22 Oct 00:19:52 00:23:57 27° 249° (WSW) 00:28:03 436.795 FM
UOSAT-12 22 Oct 00:21:04 00:25:11 29° 53° (NE) 00:29:13 437.025 FM, 437.400 FM
MaSat-1 22 Oct 00:39:22 00:43:43 73° 111° (ESE) 00:47:42 437.345 MHz
Oscar 16 22 Oct 01:40:12 01:43:28 17° 94° (E) 01:46:43 437.025 USB, Beacon 2401.1428
RS-15 22 Oct 01:48:29 01:56:41 23° 324° (NW) 02:04:57 29.354 - 29.394 USB, Beacon 29.352 USB
UOSAT-12 22 Oct 02:01:17 02:05:13 27° 249° (WSW) 02:09:06 437.025 FM, 437.400 FM
AO-Echo 22 Oct 02:01:29 02:04:17 14° 92° (E) 02:07:04 ?
Oscar 19 22 Oct 02:32:46 02:37:49 59° 101° (E) 02:42:51 437.125 CW, 437.150 USB
JAS-1B 22 Oct 02:40:00 02:46:37 59° 102° (ESE) 02:54:30 435.800 - 435.900 CW/SSB
AO-27 22 Oct 02:42:58 02:47:28 29° 97° (E) 02:51:55 436.795 MHz FM
Oscar 10/S400 22 Oct 02:44:39 03:36:49 16° 251° (WSW) 05:08:41 145.825 - 145.975 CW/USB, Beacon 145.810 USB
Oscar 16 22 Oct 03:18:08 03:23:01 47° 288° (WNW) 03:27:53 437.025 USB, Beacon 2401.1428
Uribyol 2 22 Oct 03:31:47 03:37:01 87° 284° (WNW) 03:42:12 436.500 FM
PCSat 22 Oct 03:34:38 03:37:44 16° 104° (ESE) 03:40:50 145.825 MHz
ITAMSAT 1 22 Oct 03:36:59 03:42:14 83° 284° (WNW) 03:47:26 435.822 SSB
AO-Echo 22 Oct 03:38:07 03:43:20 60° 286° (WNW) 03:48:33 ?
Gurwin Techsat 1B 22 Oct 03:38:29 03:43:40 52° 100° (E) 03:48:49 435.225 FM
TMSAT-1 22 Oct 03:51:48 03:56:57 51° 100° (E) 04:02:05 436.925 FM
RS-15 22 Oct 04:12:16 04:15:18 11° 1° (N) 04:18:21 29.354 - 29.394 USB, Beacon 29.352 USB
Oscar 19 22 Oct 04:13:55 04:16:37 15° 296° (WNW) 04:19:18 437.125 CW, 437.150 USB
OPAL 22 Oct 04:17:03 04:19:55 15° 62° (ENE) 04:22:47 ?
AO-27 22 Oct 04:22:23 04:26:52 30° 291° (WNW) 04:31:20 436.795 MHz FM
AO-7 22 Oct 04:30:12 04:37:09 29° 97° (E) 04:44:04 29.400 - 29.500 MHz
JAS-1B 22 Oct 04:31:58 04:36:55 23° 294° (WNW) 04:42:30 435.800 - 435.900 CW/SSB
Sapphire 22 Oct 04:52:15 04:57:38 81° 115° (ESE) 05:03:04 437.095 MHz 1200 baud AX-25 AFSK
PCSat 22 Oct 05:15:16 05:20:35 58° 299° (WNW) 05:25:56 145.825 MHz
Gurwin Techsat 1B 22 Oct 05:19:46 05:23:10 18° 295° (WNW) 05:26:35 435.225 FM
Uosat F 22 Oct 05:20:22 05:25:17 51° 100° (E) 05:30:10 435.120 FM
TMSAT-1 22 Oct 05:32:58 05:36:25 18° 295° (WNW) 05:39:52 436.925 FM
OPAL 22 Oct 05:53:10 05:58:16 60° 257° (WSW) 06:03:21 ?
STRAND 1 22 Oct 05:57:06 05:59:23 13° 63° (ENE) 06:01:40 ?
JAS-2 22 Oct 05:58:40 06:05:49 39° 96° (E) 06:12:56 435.800 - 435.900 CW/SSB, 435.910 FM
AO-7 22 Oct 06:22:08 06:30:10 56° 293° (WNW) 06:38:13 29.400 - 29.500 MHz
RS-15 22 Oct 06:25:06 06:33:47 25° 38° (NE) 06:42:41 29.354 - 29.394 USB, Beacon 29.352 USB
Sapphire 22 Oct 06:38:56 06:41:42 14° 312° (NW) 06:44:29 437.095 MHz 1200 baud AX-25 AFSK
Hamsat 22 Oct 06:53:49 06:58:00 70° 101° (E) 07:02:11 145.90 MHz
Uosat F 22 Oct 07:00:32 07:03:36 16° 295° (WNW) 07:06:40 435.120 FM
STRAND 1 22 Oct 07:32:52 07:37:57 67° 258° (WSW) 07:43:04 ?
JAS-2 22 Oct 07:43:34 07:50:41 42° 291° (WNW) 07:57:52 435.800 - 435.900 CW/SSB, 435.910 FM
Saudisat 1A 22 Oct 07:50:54 07:54:35 27° 112° (ESE) 07:58:18 436.775 MHz
AO-40 22 Oct 08:25:53 00:00:07 49° 183° (S) 09:03:19 Beacon 2401.320
SO-67 22 Oct 08:35:38 08:38:57 45° 284° (WNW) 08:42:14 435.3500 MHz FM
PANSAT 22 Oct 08:35:40 08:38:07 16° 163° (SSE) 08:40:35 not established
RS-15 22 Oct 08:36:37 08:47:55 85° 62° (ENE) 08:59:43 29.354 - 29.394 USB, Beacon 29.352 USB
Saudisat 1A 22 Oct 09:30:23 09:34:04 26° 307° (NW) 09:37:47 436.775 MHz
UKube-1 22 Oct 09:51:50 09:54:20 15° 94° (E) 09:56:50 145.840 MHz, 145.915 MHz
HO-68 22 Oct 10:10:58 10:18:10 73° 104° (ESE) 10:25:20 435.675 MHz FM
PANSAT 22 Oct 10:14:27 10:17:47 29° 175° (S) 10:21:07 not established
FUNcube-1 22 Oct 10:26:57 10:28:57 13° 92° (E) 10:30:56 145.950 - 145.970 MHz USB
MaSat-1 22 Oct 10:29:34 10:32:05 49° 65° (ENE) 10:34:25 437.345 MHz
Oscar 11 22 Oct 10:34:32 10:38:40 44° 99° (E) 10:42:46 145.825 FM, Beacon 2401.500 USB
RS-15 22 Oct 10:51:16 10:58:57 21° 259° (WSW) 11:06:53 29.354 - 29.394 USB, Beacon 29.352 USB
ZACube-1 22 Oct 11:15:55 11:20:06 54° 100° (E) 11:24:11 437.345 MHz
UKube-1 22 Oct 11:26:35 11:30:39 39° 288° (WNW) 11:34:42 145.840 MHz, 145.915 MHz
PANSAT 22 Oct 11:54:17 11:57:32 27° 188° (S) 12:00:47 not established
KITSAT 1 22 Oct 11:59:25 12:06:12 31° 106° (ESE) 12:12:59 435.175 FM
HO-68 22 Oct 12:00:18 12:05:06 20° 300° (WNW) 12:09:54 435.675 MHz FM
FUNcube-1 22 Oct 12:01:31 12:05:31 40° 287° (WNW) 12:09:26 145.950 - 145.970 MHz USB
Oscar 11 22 Oct 12:12:19 12:14:25 14° 293° (WNW) 12:16:32 145.825 FM, Beacon 2401.500 USB
Oscar 10/S400 22 Oct 12:40:40 13:02:46 35° 152° (SSE) 13:19:45 145.825 - 145.975 CW/USB, Beacon 145.810 USB
ISS 22 Oct 12:44:15 12:46:27 17° 128° (SE) 12:48:39 145.800 FM
SO-50 22 Oct 12:52:09 12:55:17 19° 109° (ESE) 12:58:29 436.795 FM
Oscar 16 22 Oct 12:54:14 12:57:48 19° 66° (ENE) 13:01:21 437.025 USB, Beacon 2401.1428
ZACube-1 22 Oct 12:54:55 12:55:57 11° 295° (WNW) 12:56:59 437.345 MHz
Uribyol 2 22 Oct 13:11:22 13:12:47 11° 62° (ENE) 13:14:13 436.500 FM
AO-Echo 22 Oct 13:12:27 13:14:28 13° 63° (ENE) 13:16:31 ?
ITAMSAT 1 22 Oct 13:16:19 13:18:06 12° 62° (ENE) 13:19:53 435.822 SSB
JAS-1B 22 Oct 13:24:05 13:29:25 32° 69° (ENE) 13:34:24 435.800 - 435.900 CW/SSB
PANSAT 22 Oct 13:35:16 13:37:09 13° 200° (SSW) 13:39:02 not established
Sapphire 22 Oct 13:43:51 13:48:43 32° 56° (ENE) 13:53:33 437.095 MHz 1200 baud AX-25 AFSK
Oscar 19 22 Oct 13:46:20 13:51:25 62° 74° (ENE) 13:56:30 437.125 CW, 437.150 USB
KITSAT 1 22 Oct 13:53:21 14:01:10 53° 303° (WNW) 14:09:02 435.175 FM
AO-27 22 Oct 13:58:01 14:02:34 32° 69° (ENE) 14:07:09 436.795 MHz FM
PCSat 22 Oct 14:06:24 14:11:45 55° 61° (ENE) 14:17:02 145.825 MHz
ISS 22 Oct 14:19:46 14:22:54 38° 322° (NW) 14:26:03 145.800 FM
UOSAT-12 22 Oct 14:30:16 14:33:18 18° 109° (ESE) 14:36:22 437.025 FM, 437.400 FM
SO-50 22 Oct 14:31:22 14:35:31 37° 305° (NW) 14:39:47 436.795 FM
Oscar 16 22 Oct 14:31:50 14:36:46 45° 261° (W) 14:41:42 437.025 USB, Beacon 2401.1428
Uribyol 2 22 Oct 14:46:18 14:51:31 81° 257° (WSW) 14:56:46 436.500 FM
AO-Echo 22 Oct 14:47:50 14:52:36 64° 259° (W) 14:57:32 ?
ITAMSAT 1 22 Oct 14:51:41 14:56:52 76° 257° (WSW) 15:02:07 435.822 SSB
Gurwin Techsat 1B 22 Oct 14:56:18 15:01:30 59° 74° (ENE) 15:06:44 435.225 FM
TMSAT-1 22 Oct 15:09:16 15:14:26 58° 74° (ENE) 15:19:39 436.925 FM
JAS-1B 22 Oct 15:14:47 15:20:05 29° 262° (W) 15:25:00 435.800 - 435.900 CW/SSB
AO-7 22 Oct 15:26:05 15:33:00 31° 61° (ENE) 15:39:55 29.400 - 29.500 MHz
Sapphire 22 Oct 15:27:22 15:32:01 30° 252° (WSW) 15:36:39 437.095 MHz 1200 baud AX-25 AFSK
Oscar 19 22 Oct 15:28:50 15:31:06 13° 268° (W) 15:33:22 437.125 CW, 437.150 USB
AO-27 22 Oct 15:37:43 15:42:01 26° 264° (W) 15:46:22 436.795 MHz FM
PCSat 22 Oct 15:51:20 15:54:38 17° 256° (WSW) 15:57:54 145.825 MHz
KITSAT 1 22 Oct 15:55:45 15:58:39 12° 326° (NW) 16:01:33 435.175 FM
UOSAT-12 22 Oct 16:08:40 16:13:04 43° 304° (NW) 16:17:33 437.025 FM, 437.400 FM
Saudisat 1A 22 Oct 16:22:14 16:23:26 11° 45° (NE) 16:24:38 436.775 MHz
Uosat F 22 Oct 16:30:24 16:35:13 50° 73° (ENE) 16:40:05 435.120 FM
Gurwin Techsat 1B 22 Oct 16:39:05 16:41:48 14° 268° (W) 16:44:31 435.225 FM
TMSAT-1 22 Oct 16:51:51 16:54:40 15° 268° (W) 16:57:31 436.925 FM
AO-7 22 Oct 17:17:18 17:25:19 54° 257° (WSW) 17:33:24 29.400 - 29.500 MHz
Hamsat 22 Oct 17:44:06 17:47:51 32° 72° (ENE) 17:51:36 145.90 MHz
JAS-2 22 Oct 17:51:52 17:57:29 69° 74° (ENE) 18:03:54 435.800 - 435.900 CW/SSB, 435.910 FM
Saudisat 1A 22 Oct 17:59:08 18:03:34 83° 242° (WSW) 18:07:58 436.775 MHz
OPAL 22 Oct 18:06:29 18:11:15 46° 102° (ESE) 18:15:59 ?
Uosat F 22 Oct 18:11:20 18:14:14 15° 267° (W) 18:17:09 435.120 FM
SO-67 22 Oct 19:05:07 19:08:06 29° 73° (ENE) 19:11:07 435.3500 MHz FM
Hamsat 22 Oct 19:21:04 19:23:50 17° 266° (W) 19:26:36 145.90 MHz
JAS-2 22 Oct 19:40:30 19:43:20 14° 272° (W) 19:46:19 435.800 - 435.900 CW/SSB, 435.910 FM
OPAL 22 Oct 19:46:31 19:49:44 18° 297° (WNW) 19:52:56 ?
STRAND 1 22 Oct 19:46:49 19:51:53 54° 101° (E) 19:56:54 ?
KITSAT 1 22 Oct 19:58:45 19:59:55 10° 31° (NNE) 20:01:06 435.175 FM
HO-68 22 Oct 20:36:08 20:42:38 39° 66° (ENE) 20:49:10 435.675 MHz FM
SO-67 22 Oct 20:39:53 20:41:08 12° 267° (W) 20:42:23 435.3500 MHz FM
ISS 22 Oct 20:50:51 20:54:08 53° 40° (NE) 20:57:24 145.800 FM
RS-15 22 Oct 20:51:11 20:55:59 14° 98° (E) 21:00:43 29.354 - 29.394 USB, Beacon 29.352 USB
Oscar 11 22 Oct 21:26:52 21:30:21 24° 70° (ENE) 21:33:49 145.825 FM, Beacon 2401.500 USB
STRAND 1 22 Oct 21:27:32 21:30:34 16° 296° (WNW) 21:33:36 ?
SO-50 22 Oct 21:28:01 21:28:58 11° 43° (NE) 21:29:55 436.795 FM
KITSAT 1 22 Oct 21:50:01 21:57:42 45° 55° (NE) 22:05:20 435.175 FM
ZACube-1 22 Oct 22:09:02 22:13:05 31° 72° (ENE) 22:17:06 437.345 MHz
